Simultaneous Nadir Overpasses (SNOs) Predictions

Prediction of SNOs over PacNW region [( 10.00, 139.50) to ( 22.70, 165.60)] between NOAA-19 and NPP Satellites:

Table of predicted SNOs over PacNW region for the next 30.0 days since TLE Epoch: 2/28/2014
Index Date (NOAA-19) Time (NOAA-19) NOAA-19 Lat,Lon Date (NPP) Time (NPP) NPP Lat,Lon Distance(km) Time Diff (sec)
1 03/05/2014 16:04:47 22.62, 149.29 03/05/2014 16:05:15 23.68, 144.71 482.79 28
2 03/06/2014 03:21:17 22.70, 152.68 03/06/2014 03:18:01 21.96, 149.11 376.93 196
3 03/18/2014 02:47:37 13.94, 162.74 03/18/2014 02:50:06 12.74, 157.71 560.34 149
4 03/18/2014 15:24:07 17.14, 158.61 03/18/2014 15:22:32 18.00, 154.46 450.49 95




NCC Satellite Simultaneous Nadir Overpasses (SNOs) Prediction Service
